Terminal Aerodrome Forecast
Issued by NWS Upton, NY

Home | Current Version | Previous Version | Text Only | Print | Product List | Glossary On
Versions: 1 2 3 4 5 6 7 8 9 10 11 12 13 14 15 16 17 18 19 20 21 22 23 24 25 26
000
FTUS41 KOKX 312300
TAFLGA
TAF
KLGA 312336Z 0100/0124 18012KT P6SM FEW060 SCT100
     FM010200 21005KT P6SM FEW100 SCT250
     FM011400 18009KT P6SM FEW060 BKN250
     FM011900 17012KT P6SM SCT060 BKN150=

USA.gov is the U.S. government's official web portal to all federal, state and local government web resources and services.